owner,sensor,date,latitude,longitude,vertical_datum,wind_speed,wind_to_direction,wind_speed_of_gust,qcFlag 
TABS,ioos:station:wmo:42043:1,2009-11-01T00:00:00Z,28.9818,-94.9186,4.0,4.96179403,28.26919568,6.46,'11111222,11111222,11111222' 
TABS,ioos:station:wmo:42043:1,2009-11-01T00:30:00Z,28.9818,-94.9186,4.0,4.517742799,31.79000499,5.37,'11111222,11111222,11111222' 
TABS,ioos:station:wmo:42043:1,2009-11-01T01:00:00Z,28.9818,-94.9186,4.0,3.774135663,37.35540296,4.94,'11111222,11111222,11111222' 
TABS,ioos:station:wmo:42043:1,2009-11-01T01:30:00Z,28.9818,-94.9186,4.0,3.922371731,36.08077655,4.86,'11111222,11111222,11111222' 
TABS,ioos:station:wmo:42043:1,2009-11-01T02:00:00Z,28.9818,-94.9186,4.0,3.812833592,31.81395384,4.88,'11111222,11111222,11111222' 
TABS,ioos:station:wmo:42043:1,2009-11-01T02:30:00Z,28.9818,-94.9186,4.0,3.542781393,39.84668109,4.59,'11111222,11111222,11111222' 
TABS,ioos:station:wmo:42043:1,2009-11-01T03:00:00Z,28.9818,-94.9186,4.0,3.510270645,29.3396918,4.39,'11111222,11111222,11111222' 
TABS,ioos:station:wmo:42043:1,2009-11-01T03:30:00Z,28.9818,-94.9186,4.0,3.841301863,20.41612665,5.25,'11111222,11111222,11111222' 
TABS,ioos:station:wmo:42043:1,2009-11-01T04:00:00Z,28.9818,-94.9186,4.0,3.591726604,48.49861235,4.37,'11111222,11111222,11111222' 
TABS,ioos:station:wmo:42043:1,2009-11-01T04:30:00Z,28.9818,-94.9186,4.0,3.071481727,47.37464027,4.22,'11111222,11111222,11111222' 
TABS,ioos:station:wmo:42043:1,2009-11-01T05:00:00Z,28.9818,-94.9186,4.0,2.546566316,43.40854776,3.56,'11111222,11111222,11111222' 
TABS,ioos:station:wmo:42043:1,2009-11-01T05:30:00Z,28.9818,-94.9186,4.0,2.369071548,45.85477971,3.21,'11111222,11111222,11111222' 
TABS,ioos:station:wmo:42043:1,2009-11-01T06:00:00Z,28.9818,-94.9186,4.0,2.098046711,52.74743823,3.04,'11111222,11111222,11111222' 
TABS,ioos:station:wmo:42043:1,2009-11-01T06:30:00Z,28.9818,-94.9186,4.0,1.911753122,42.03145722,2.63,'11111222,11111222,11111222' 
TABS,ioos:station:wmo:42043:1,2009-11-01T07:00:00Z,28.9818,-94.9186,4.0,1.697586522,46.43177715,2.29,'11111222,11111222,11111222' 
TABS,ioos:station:wmo:42043:1,2009-11-01T07:30:00Z,28.9818,-94.9186,4.0,1.866976165,45.86773373,2.89,'11111222,11111222,11111222' 
TABS,ioos:station:wmo:42043:1,2009-11-01T08:00:00Z,28.9818,-94.9186,4.0,2.096115455,36.26823746,2.71,'11111222,11111222,11111222' 
TABS,ioos:station:wmo:42043:1,2009-11-01T08:30:00Z,28.9818,-94.9186,4.0,2.647508262,17.13430059,3.6,'11111222,11111222,11111222' 
TABS,ioos:station:wmo:42043:1,2009-11-01T09:00:00Z,28.9818,-94.9186,4.0,2.84597962,28.54591352,3.49,'11111222,11111222,11111222' 
TABS,ioos:station:wmo:42043:1,2009-11-01T09:30:00Z,28.9818,-94.9186,4.0,3.46746305,32.63565736,4.48,'11111222,11111222,11111222' 
TABS,ioos:station:wmo:42043:1,2009-11-01T10:00:00Z,28.9818,-94.9186,4.0,3.958951881,23.52138241,4.83,'11111222,11111222,11111222' 
TABS,ioos:station:wmo:42043:1,2009-11-01T10:30:00Z,28.9818,-94.9186,4.0,4.424217445,17.90229929,5.59,'11111222,11111222,11111222' 
TABS,ioos:station:wmo:42043:1,2009-11-01T11:00:00Z,28.9818,-94.9186,4.0,5.397425312,15.143149,6.59,'11111222,11111222,11111222' 
TABS,ioos:station:wmo:42043:1,2009-11-01T11:30:00Z,28.9818,-94.9186,4.0,5.714910323,10.99510356,6.92,'11111222,11111222,11111222' 
TABS,ioos:station:wmo:42043:1,2009-11-01T12:00:00Z,28.9818,-94.9186,4.0,5.121376768,25.56408306,6.58,'11111222,11111222,11111222' 
TABS,ioos:station:wmo:42043:1,2009-11-01T12:30:00Z,28.9818,-94.9186,4.0,5.040099205,26.51393953,6.16,'11111222,11111222,11111222' 
TABS,ioos:station:wmo:42043:1,2009-11-01T13:00:00Z,28.9818,-94.9186,4.0,5.314169738,34.10842378,6.94,'11111222,11111222,11111222' 
TABS,ioos:station:wmo:42043:1,2009-11-01T13:30:00Z,28.9818,-94.9186,4.0,4.93981781,38.42402235,6.33,'11111222,11111222,11111222' 
TABS,ioos:station:wmo:42043:1,2009-11-01T14:00:00Z,28.9818,-94.9186,4.0,4.795883652,41.53401838,6.04,'11111222,11111222,11111222' 
TABS,ioos:station:wmo:42043:1,2009-11-01T14:30:00Z,28.9818,-94.9186,4.0,4.893107397,48.06468622,6.2,'11111222,11111222,11111222' 
TABS,ioos:station:wmo:42043:1,2009-11-01T15:00:00Z,28.9818,-94.9186,4.0,5.049059318,49.33683736,6.72,'11111222,11111222,11111222' 
TABS,ioos:station:wmo:42043:1,2009-11-01T15:30:00Z,28.9818,-94.9186,4.0,5.786752112,57.49049345,7.51,'11111222,11111222,11111222' 
TABS,ioos:station:wmo:42043:1,2009-11-01T16:00:00Z,28.9818,-94.9186,4.0,6.268341088,58.7694055,7.63,'11111222,11111222,11111222' 
TABS,ioos:station:wmo:42043:1,2009-11-01T16:30:00Z,28.9818,-94.9186,4.0,6.313834017,65.38294639,7.8,'11111222,11111222,11111222' 
TABS,ioos:station:wmo:42043:1,2009-11-01T17:00:00Z,28.9818,-94.9186,4.0,6.367495583,74.98125357,7.99,'11111222,11111222,11111222' 
TABS,ioos:station:wmo:42043:1,2009-11-01T17:30:00Z,28.9818,-94.9186,4.0,6.043351719,72.07435431,7.67,'11111222,11111222,11111222' 
TABS,ioos:station:wmo:42043:1,2009-11-01T18:00:00Z,28.9818,-94.9186,4.0,6.006704587,72.86182546,7.52,'11111222,11111222,11111222' 
TABS,ioos:station:wmo:42043:1,2009-11-01T18:30:00Z,28.9818,-94.9186,4.0,6.105243648,70.08066216,7.62,'11111222,11111222,11111222' 
TABS,ioos:station:wmo:42043:1,2009-11-01T19:00:00Z,28.9818,-94.9186,4.0,5.786233663,73.22449823,7.65,'11111222,11111222,11111222' 
TABS,ioos:station:wmo:42043:1,2009-11-01T19:30:00Z,28.9818,-94.9186,4.0,5.487121285,70.73914483,6.84,'11111222,11111222,11111222' 
TABS,ioos:station:wmo:42043:1,2009-11-01T20:00:00Z,28.9818,-94.9186,4.0,5.023982484,66.29189471,6.25,'11111222,11111222,11111222' 
TABS,ioos:station:wmo:42043:1,2009-11-01T20:30:00Z,28.9818,-94.9186,4.0,5.040079364,68.83152911,6.28,'11111222,11111222,11111222' 
TABS,ioos:station:wmo:42043:1,2009-11-01T21:00:00Z,28.9818,-94.9186,4.0,4.623299687,66.81731537,6.34,'11111222,11111222,11111222' 
TABS,ioos:station:wmo:42043:1,2009-11-01T21:30:00Z,28.9818,-94.9186,4.0,4.647375603,73.24133059,5.82,'11111222,11111222,11111222' 
TABS,ioos:station:wmo:42043:1,2009-11-01T22:00:00Z,28.9818,-94.9186,4.0,4.622034184,66.54060986,6.25,'11111222,11111222,11111222' 
TABS,ioos:station:wmo:42043:1,2009-11-01T22:30:00Z,28.9818,-94.9186,4.0,4.351425054,63.67013092,5.68,'11111222,11111222,11111222' 
TABS,ioos:station:wmo:42043:1,2009-11-01T23:00:00Z,28.9818,-94.9186,4.0,4.114425841,63.74597634,5.47,'11111222,11111222,11111222' 
TABS,ioos:station:wmo:42043:1,2009-11-01T23:30:00Z,28.9818,-94.9186,4.0,3.871562992,65.75164699,5.12,'11111222,11111222,11111222' 
TABS,ioos:station:wmo:42043:1,2009-11-02T00:00:00Z,28.9818,-94.9186,4.0,3.647423748,55.61249141,5.44,'11111222,11111222,11111222' 
TABS,ioos:station:wmo:42043:1,2009-11-02T00:30:00Z,28.9818,-94.9186,4.0,3.713892836,56.86584126,5.21,'11111222,11111222,11111222' 
TABS,ioos:station:wmo:42043:1,2009-11-02T01:00:00Z,28.9818,-94.9186,4.0,3.923531572,61.86702745,5.42,'11111222,11111222,11111222' 
TABS,ioos:station:wmo:42043:1,2009-11-02T01:30:00Z,28.9818,-94.9186,4.0,3.66656515,73.19560141,4.78,'11111222,11111222,11111222' 
TABS,ioos:station:wmo:42043:1,2009-11-02T02:00:00Z,28.9818,-94.9186,4.0,3.395069955,77.92842389,4.52,'11111222,11111222,11111222' 
TABS,ioos:station:wmo:42043:1,2009-11-02T02:30:00Z,28.9818,-94.9186,4.0,3.442237644,97.84803007,4.86,'11111222,11111222,11111222' 
TABS,ioos:station:wmo:42043:1,2009-11-02T03:00:00Z,28.9818,-94.9186,4.0,3.551478565,96.30496622,4.7,'11111222,11111222,11111222' 
TABS,ioos:station:wmo:42043:1,2009-11-02T03:30:00Z,28.9818,-94.9186,4.0,3.473341331,101.7955975,4.48,'11111222,11111222,11111222' 
TABS,ioos:station:wmo:42043:1,2009-11-02T04:00:00Z,28.9818,-94.9186,4.0,2.883626189,95.57260569,3.89,'11111222,11111222,11111222' 
TABS,ioos:station:wmo:42043:1,2009-11-02T04:30:00Z,28.9818,-94.9186,4.0,2.650924367,91.51353894,3.98,'11111222,11111222,11111222' 
TABS,ioos:station:wmo:42043:1,2009-11-02T05:00:00Z,28.9818,-94.9186,4.0,2.175178154,81.27346371,2.91,'11111222,11111222,11111222' 
TABS,ioos:station:wmo:42043:1,2009-11-02T05:30:00Z,28.9818,-94.9186,4.0,2.129037341,64.3974514,3.01,'11111222,11111222,11111222' 
TABS,ioos:station:wmo:42043:1,2009-11-02T06:00:00Z,28.9818,-94.9186,4.0,1.974487275,69.54547094,2.87,'11111222,11111222,11111222' 
TABS,ioos:station:wmo:42043:1,2009-11-02T06:30:00Z,28.9818,-94.9186,4.0,2.249288776,66.96828007,3.43,'11111222,11111222,11111222' 
TABS,ioos:station:wmo:42043:1,2009-11-02T07:00:00Z,28.9818,-94.9186,4.0,1.982044399,50.52721154,2.68,'11111222,11111222,11111222' 
TABS,ioos:station:wmo:42043:1,2009-11-02T07:30:00Z,28.9818,-94.9186,4.0,2.392655429,38.21072561,3.14,'11111222,11111222,11111222' 
TABS,ioos:station:wmo:42043:1,2009-11-02T08:00:00Z,28.9818,-94.9186,4.0,2.484773632,38.29938866,3.11,'11111222,11111222,11111222' 
TABS,ioos:station:wmo:42043:1,2009-11-02T08:30:00Z,28.9818,-94.9186,4.0,2.851596044,32.68664965,3.89,'11111222,11111222,11111222' 
TABS,ioos:station:wmo:42043:1,2009-11-02T09:00:00Z,28.9818,-94.9186,4.0,3.027754944,26.05700183,4.19,'11111222,11111222,11111222' 
TABS,ioos:station:wmo:42043:1,2009-11-02T09:30:00Z,28.9818,-94.9186,4.0,3.114305701,24.67207678,3.69,'11111222,11111222,11111222' 
TABS,ioos:station:wmo:42043:1,2009-11-02T10:00:00Z,28.9818,-94.9186,4.0,3.062319382,22.46128698,3.8,'11111222,11111222,11111222' 
TABS,ioos:station:wmo:42043:1,2009-11-02T10:30:00Z,28.9818,-94.9186,4.0,3.456544517,17.85808883,4.46,'11111222,11111222,11111222' 
TABS,ioos:station:wmo:42043:1,2009-11-02T11:00:00Z,28.9818,-94.9186,4.0,3.524826237,16.48102321,4.31,'11111222,11111222,11111222' 
TABS,ioos:station:wmo:42043:1,2009-11-02T11:30:00Z,28.9818,-94.9186,4.0,4.490267253,7.678735392,5.7,'11111222,11111222,11111222' 
TABS,ioos:station:wmo:42043:1,2009-11-02T12:00:00Z,28.9818,-94.9186,4.0,4.85412196,2.361158678,5.85,'11111222,11111222,11111222' 
TABS,ioos:station:wmo:42043:1,2009-11-02T12:30:00Z,28.9818,-94.9186,4.0,5.006246099,2.862188074,5.81,'11111222,11111222,11111222' 
TABS,ioos:station:wmo:42043:1,2009-11-02T13:00:00Z,28.9818,-94.9186,4.0,5.18312647,1.989957137,6.51,'11111222,11111222,11111222' 
TABS,ioos:station:wmo:42043:1,2009-11-02T13:30:00Z,28.9818,-94.9186,4.0,5.447724296,356.9483145,6.79,'11111222,11111222,11111222' 
TABS,ioos:station:wmo:42043:1,2009-11-02T14:00:00Z,28.9818,-94.9186,4.0,6.076454558,357.3586995,7.38,'11111222,11111222,11111222' 
TABS,ioos:station:wmo:42043:1,2009-11-02T14:30:00Z,28.9818,-94.9186,4.0,6.105120801,2.346658346,7.89,'11111222,11111222,11111222' 
TABS,ioos:station:wmo:42043:1,2009-11-02T15:00:00Z,28.9818,-94.9186,4.0,5.489817848,6.90472118,6.76,'11111222,11111222,11111222' 
TABS,ioos:station:wmo:42043:1,2009-11-02T15:30:00Z,28.9818,-94.9186,4.0,5.447788542,7.59441515,6.78,'11111222,11111222,11111222' 
TABS,ioos:station:wmo:42043:1,2009-11-02T16:00:00Z,28.9818,-94.9186,4.0,4.428317965,11.46194227,5.5,'11111222,11111222,11111222' 
TABS,ioos:station:wmo:42043:1,2009-11-02T16:30:00Z,28.9818,-94.9186,4.0,4.419558802,14.94787364,5.53,'11111222,11111222,11111222' 
TABS,ioos:station:wmo:42043:1,2009-11-02T17:00:00Z,28.9818,-94.9186,4.0,4.451123454,14.9726303,5.64,'11111222,11111222,11111222' 
TABS,ioos:station:wmo:42043:1,2009-11-02T17:30:00Z,28.9818,-94.9186,4.0,4.560219293,17.87844433,5.74,'11111222,11111222,11111222' 
TABS,ioos:station:wmo:42043:1,2009-11-02T18:00:00Z,28.9818,-94.9186,4.0,4.195390327,22.71414878,5.26,'11111222,11111222,11111222' 
TABS,ioos:station:wmo:42043:1,2009-11-02T18:30:00Z,28.9818,-94.9186,4.0,3.934513947,30.2142272,4.94,'11111222,11111222,11111222' 
TABS,ioos:station:wmo:42043:1,2009-11-02T19:00:00Z,28.9818,-94.9186,4.0,4.189045237,41.03121775,5.11,'11111222,11111222,11111222' 
TABS,ioos:station:wmo:42043:1,2009-11-02T19:30:00Z,28.9818,-94.9186,4.0,4.052024186,44.29977233,4.99,'11111222,11111222,11111222' 
TABS,ioos:station:wmo:42043:1,2009-11-02T20:00:00Z,28.9818,-94.9186,4.0,3.609016487,42.753947,4.48,'11111222,11111222,11111222' 
TABS,ioos:station:wmo:42043:1,2009-11-02T20:30:00Z,28.9818,-94.9186,4.0,3.49181901,31.41372487,4.57,'11111222,11111222,11111222' 
TABS,ioos:station:wmo:42043:1,2009-11-02T21:00:00Z,28.9818,-94.9186,4.0,3.370356064,34.72711694,4.33,'11111222,11111222,11111222' 
TABS,ioos:station:wmo:42043:1,2009-11-02T21:30:00Z,28.9818,-94.9186,4.0,2.92071909,27.52985133,3.78,'11111222,11111222,11111222' 
TABS,ioos:station:wmo:42043:1,2009-11-02T22:00:00Z,28.9818,-94.9186,4.0,3.213611675,24.25186625,4.1,'11111222,11111222,11111222' 
TABS,ioos:station:wmo:42043:1,2009-11-02T22:30:00Z,28.9818,-94.9186,4.0,3.065452658,24.47462433,3.9,'11111222,11111222,11111222' 
TABS,ioos:station:wmo:42043:1,2009-11-02T23:00:00Z,28.9818,-94.9186,4.0,2.283265206,38.77707695,2.96,'11111222,11111222,11111222' 
TABS,ioos:station:wmo:42043:1,2009-11-02T23:30:00Z,28.9818,-94.9186,4.0,1.805463929,47.91811221,2.53,'11111222,11111222,11111222' 
TABS,ioos:station:wmo:42043:1,2009-11-03T00:00:00Z,28.9818,-94.9186,4.0,2.004195599,36.0691151,2.55,'11111222,11111222,11111222' 
TABS,ioos:station:wmo:42043:1,2009-11-03T00:30:00Z,28.9818,-94.9186,4.0,1.738188712,68.74912327,2.26,'11111222,11111222,11111222' 
TABS,ioos:station:wmo:42043:1,2009-11-03T01:00:00Z,28.9818,-94.9186,4.0,1.698146048,71.45797769,2.29,'11111222,11111222,11111222' 
TABS,ioos:station:wmo:42043:1,2009-11-03T01:30:00Z,28.9818,-94.9186,4.0,2.510717029,46.12931122,3.05,'11111222,11111222,11111222' 
TABS,ioos:station:wmo:42043:1,2009-11-03T02:00:00Z,28.9818,-94.9186,4.0,2.718105958,52.62385899,3.29,'11111222,11111222,11111222' 
TABS,ioos:station:wmo:42043:1,2009-11-03T02:30:00Z,28.9818,-94.9186,4.0,2.884614359,63.87873342,3.6,'11111222,11111222,11111222' 
TABS,ioos:station:wmo:42043:1,2009-11-03T03:00:00Z,28.9818,-94.9186,4.0,3.03713681,55.734037,3.75,'11111222,11111222,11111222' 
TABS,ioos:station:wmo:42043:1,2009-11-03T03:30:00Z,28.9818,-94.9186,4.0,3.049016235,46.72733544,3.88,'11111222,11111222,11111222' 
TABS,ioos:station:wmo:42043:1,2009-11-03T04:00:00Z,28.9818,-94.9186,4.0,2.793295545,44.27446171,3.52,'11111222,11111222,11111222' 
TABS,ioos:station:wmo:42043:1,2009-11-03T04:30:00Z,28.9818,-94.9186,4.0,2.941870153,44.1733621,3.53,'11111222,11111222,11111222' 
TABS,ioos:station:wmo:42043:1,2009-11-03T05:00:00Z,28.9818,-94.9186,4.0,3.282879833,38.19613692,3.89,'11111222,11111222,11111222' 
TABS,ioos:station:wmo:42043:1,2009-11-03T05:30:00Z,28.9818,-94.9186,4.0,3.057662506,40.35709297,4.07,'11111222,11111222,11111222' 
TABS,ioos:station:wmo:42043:1,2009-11-03T06:00:00Z,28.9818,-94.9186,4.0,3.00308175,31.51972459,3.57,'11111222,11111222,11111222' 
TABS,ioos:station:wmo:42043:1,2009-11-03T06:30:00Z,28.9818,-94.9186,4.0,3.597624216,24.64139392,4.23,'11111222,11111222,11111222' 
TABS,ioos:station:wmo:42043:1,2009-11-03T07:00:00Z,28.9818,-94.9186,4.0,3.663563839,27.82382086,4.48,'11111222,11111222,11111222' 
TABS,ioos:station:wmo:42043:1,2009-11-03T07:30:00Z,28.9818,-94.9186,4.0,3.389882004,26.64036648,4.09,'11111222,11111222,11111222' 
TABS,ioos:station:wmo:42043:1,2009-11-03T08:00:00Z,28.9818,-94.9186,4.0,4.445694546,42.26471036,5.67,'11111222,11111222,11111222' 
TABS,ioos:station:wmo:42043:1,2009-11-03T08:30:00Z,28.9818,-94.9186,4.0,5.343294864,48.79357571,6.52,'11111222,11111222,11111222' 
TABS,ioos:station:wmo:42043:1,2009-11-03T09:00:00Z,28.9818,-94.9186,4.0,5.577535298,41.14696389,6.68,'11111222,11111222,11111222' 
TABS,ioos:station:wmo:42043:1,2009-11-03T09:30:00Z,28.9818,-94.9186,4.0,5.947512085,39.33655152,7.74,'11111222,11111222,11111222' 
TABS,ioos:station:wmo:42043:1,2009-11-03T10:00:00Z,28.9818,-94.9186,4.0,6.545509911,33.471279,7.73,'11111222,11111222,11111222' 
TABS,ioos:station:wmo:42043:1,2009-11-03T10:30:00Z,28.9818,-94.9186,4.0,6.077910825,30.99580755,7.98,'11111222,11111222,11111222' 
TABS,ioos:station:wmo:42043:1,2009-11-03T11:00:00Z,28.9818,-94.9186,4.0,5.85211073,33.85270385,7.28,'11111222,11111222,11111222' 
TABS,ioos:station:wmo:42043:1,2009-11-03T11:30:00Z,28.9818,-94.9186,4.0,6.458266021,40.10060331,7.67,'11111222,11111222,11111222' 
TABS,ioos:station:wmo:42043:1,2009-11-03T12:00:00Z,28.9818,-94.9186,4.0,6.751725705,39.22939671,8.02,'11111222,11111222,11111222' 
TABS,ioos:station:wmo:42043:1,2009-11-03T12:30:00Z,28.9818,-94.9186,4.0,6.387432974,33.44099285,7.8,'11111222,11111222,11111222' 
TABS,ioos:station:wmo:42043:1,2009-11-03T13:00:00Z,28.9818,-94.9186,4.0,6.479135745,34.18031121,8.39,'11111222,11111222,11111222' 
TABS,ioos:station:wmo:42043:1,2009-11-03T13:30:00Z,28.9818,-94.9186,4.0,6.616381186,40.64795288,8.22,'11111222,11111222,11111222' 
TABS,ioos:station:wmo:42043:1,2009-11-03T14:00:00Z,28.9818,-94.9186,4.0,6.243852977,45.32411825,7.94,'11111222,11111222,11111222' 
TABS,ioos:station:wmo:42043:1,2009-11-03T14:30:00Z,28.9818,-94.9186,4.0,5.929806068,49.51366221,7.04,'11111222,11111222,11111222' 
TABS,ioos:station:wmo:42043:1,2009-11-03T15:00:00Z,28.9818,-94.9186,4.0,5.634323384,47.5891801,6.97,'11111222,11111222,11111222' 
TABS,ioos:station:wmo:42043:1,2009-11-03T15:30:00Z,28.9818,-94.9186,4.0,5.467741764,51.68353279,6.79,'11111222,11111222,11111222' 
TABS,ioos:station:wmo:42043:1,2009-11-03T16:00:00Z,28.9818,-94.9186,4.0,5.270455388,58.42063833,6.67,'11111222,11111222,11111222' 
TABS,ioos:station:wmo:42043:1,2009-11-03T16:30:00Z,28.9818,-94.9186,4.0,5.449421988,47.37943265,6.83,'11111222,11111222,11111222' 
TABS,ioos:station:wmo:42043:1,2009-11-03T17:00:00Z,28.9818,-94.9186,4.0,5.849829057,32.9291411,7.16,'11111222,11111222,11111222' 
TABS,ioos:station:wmo:42043:1,2009-11-03T17:30:00Z,28.9818,-94.9186,4.0,5.207475396,40.32650689,6.81,'11111222,11111222,11111222' 
TABS,ioos:station:wmo:42043:1,2009-11-03T18:00:00Z,28.9818,-94.9186,4.0,5.286851615,41.16522849,7.11,'11111222,11111222,11111222' 
TABS,ioos:station:wmo:42043:1,2009-11-03T18:30:00Z,28.9818,-94.9186,4.0,4.885672932,42.01305431,5.95,'11111222,11111222,11111222' 
TABS,ioos:station:wmo:42043:1,2009-11-03T19:00:00Z,28.9818,-94.9186,4.0,5.118534947,40.88024108,6.2,'11111222,11111222,11111222' 
TABS,ioos:station:wmo:42043:1,2009-11-03T19:30:00Z,28.9818,-94.9186,4.0,4.369759719,51.50367964,5.47,'11111222,11111222,11111222' 
TABS,ioos:station:wmo:42043:1,2009-11-03T20:00:00Z,28.9818,-94.9186,4.0,4.747683646,40.12975398,5.62,'11111222,11111222,11111222' 
TABS,ioos:station:wmo:42043:1,2009-11-03T20:30:00Z,28.9818,-94.9186,4.0,4.86679566,39.41335396,6.18,'11111222,11111222,11111222' 
TABS,ioos:station:wmo:42043:1,2009-11-03T21:00:00Z,28.9818,-94.9186,4.0,4.555963125,43.22088816,5.65,'11111222,11111222,11111222' 
TABS,ioos:station:wmo:42043:1,2009-11-03T21:30:00Z,28.9818,-94.9186,4.0,4.497221364,44.81950992,5.84,'11111222,11111222,11111222' 
TABS,ioos:station:wmo:42043:1,2009-11-03T22:00:00Z,28.9818,-94.9186,4.0,4.290885689,49.44182905,5.24,'11111222,11111222,11111222' 
TABS,ioos:station:wmo:42043:1,2009-11-03T22:30:00Z,28.9818,-94.9186,4.0,4.582597517,44.11556243,5.6,'11111222,11111222,11111222' 
TABS,ioos:station:wmo:42043:1,2009-11-03T23:00:00Z,28.9818,-94.9186,4.0,4.166209308,46.45851106,5.42,'11111222,11111222,11111222' 
TABS,ioos:station:wmo:42043:1,2009-11-03T23:30:00Z,28.9818,-94.9186,4.0,4.278983524,43.76872764,6.02,'11111222,11111222,11111222' 
TABS,ioos:station:wmo:42043:1,2009-11-04T00:00:00Z,28.9818,-94.9186,4.0,4.112578267,39.57337486,5.23,'11111222,11111222,11111222' 
TABS,ioos:station:wmo:42043:1,2009-11-04T00:30:00Z,28.9818,-94.9186,4.0,3.695416079,40.50008712,4.81,'11111222,11111222,11111222' 
TABS,ioos:station:wmo:42043:1,2009-11-04T01:00:00Z,28.9818,-94.9186,4.0,3.439302255,56.86404702,4.63,'11111222,11111222,11111222' 
TABS,ioos:station:wmo:42043:1,2009-11-04T01:30:00Z,28.9818,-94.9186,4.0,3.411187477,47.37573397,4.32,'11111222,11111222,11111222' 
TABS,ioos:station:wmo:42043:1,2009-11-04T02:00:00Z,28.9818,-94.9186,4.0,4.003623359,57.85774442,4.79,'11111222,11111222,11111222' 
TABS,ioos:station:wmo:42043:1,2009-11-04T02:30:00Z,28.9818,-94.9186,4.0,4.048468846,67.48863189,5.52,'11111222,11111222,11111222' 
TABS,ioos:station:wmo:42043:1,2009-11-04T03:00:00Z,28.9818,-94.9186,4.0,4.070393101,70.62986234,5.06,'11111222,11111222,11111222' 
TABS,ioos:station:wmo:42043:1,2009-11-04T03:30:00Z,28.9818,-94.9186,4.0,4.350930935,91.18567896,5.54,'11111222,11111222,11111222' 
TABS,ioos:station:wmo:42043:1,2009-11-04T04:00:00Z,28.9818,-94.9186,4.0,4.28042054,90.80357829,5.21,'11111222,11111222,11111222' 
TABS,ioos:station:wmo:42043:1,2009-11-04T04:30:00Z,28.9818,-94.9186,4.0,4.666904756,98.13050426,5.79,'11111222,11111222,11111222' 
TABS,ioos:station:wmo:42043:1,2009-11-04T05:00:00Z,28.9818,-94.9186,4.0,4.118859065,93.75896781,5.19,'11111222,11111222,11111222' 
TABS,ioos:station:wmo:42043:1,2009-11-04T05:30:00Z,28.9818,-94.9186,4.0,4.171198868,84.22066006,5.26,'11111222,11111222,11111222' 
TABS,ioos:station:wmo:42043:1,2009-11-04T06:00:00Z,28.9818,-94.9186,4.0,4.056525607,86.74924354,4.96,'11111222,11111222,11111222' 
TABS,ioos:station:wmo:42043:1,2009-11-04T06:30:00Z,28.9818,-94.9186,4.0,4.095582987,79.7322948,5.34,'11111222,11111222,11111222' 
TABS,ioos:station:wmo:42043:1,2009-11-04T07:00:00Z,28.9818,-94.9186,4.0,4.411632351,91.55910148,5.52,'11111222,11111222,11111222' 
TABS,ioos:station:wmo:42043:1,2009-11-04T07:30:00Z,28.9818,-94.9186,4.0,4.291969245,77.48528024,5.17,'11111222,11111222,11111222' 
TABS,ioos:station:wmo:42043:1,2009-11-04T08:00:00Z,28.9818,-94.9186,4.0,4.019664165,80.11547819,4.84,'11111222,11111222,11111222' 
TABS,ioos:station:wmo:42043:1,2009-11-04T08:30:00Z,28.9818,-94.9186,4.0,3.6531767,85.13175106,4.6,'11111222,11111222,11111222' 
TABS,ioos:station:wmo:42043:1,2009-11-04T09:00:00Z,28.9818,-94.9186,4.0,3.306538976,78.48577482,4.37,'11111222,11111222,11111222' 
TABS,ioos:station:wmo:42043:1,2009-11-04T09:30:00Z,28.9818,-94.9186,4.0,3.500185709,44.88393569,4.57,'11111222,11111222,11111222' 
TABS,ioos:station:wmo:42043:1,2009-11-04T10:00:00Z,28.9818,-94.9186,4.0,4.033472449,32.54716931,4.92,'11111222,11111222,11111222' 
TABS,ioos:station:wmo:42043:1,2009-11-04T10:30:00Z,28.9818,-94.9186,4.0,3.980012563,36.72564236,4.96,'11111222,11111222,11111222' 
TABS,ioos:station:wmo:42043:1,2009-11-04T11:00:00Z,28.9818,-94.9186,4.0,4.346883941,39.5858744,5.14,'11111222,11111222,11111222' 
TABS,ioos:station:wmo:42043:1,2009-11-04T11:30:00Z,28.9818,-94.9186,4.0,4.60370503,45.79173955,5.75,'11111222,11111222,11111222' 
TABS,ioos:station:wmo:42043:1,2009-11-04T12:00:00Z,28.9818,-94.9186,4.0,4.382750278,39.53745462,5.22,'11111222,11111222,11111222' 
TABS,ioos:station:wmo:42043:1,2009-11-04T12:30:00Z,28.9818,-94.9186,4.0,4.440630586,44.99968431,5.41,'11111222,11111222,11111222' 
TABS,ioos:station:wmo:42043:1,2009-11-04T13:00:00Z,28.9818,-94.9186,4.0,3.729785517,63.22849147,5.43,'11111222,11111222,11111222' 
TABS,ioos:station:wmo:42043:1,2009-11-04T13:30:00Z,28.9818,-94.9186,4.0,3.890758281,63.43459003,4.89,'11111222,11111222,11111222' 
TABS,ioos:station:wmo:42043:1,2009-11-04T14:00:00Z,28.9818,-94.9186,4.0,3.680489098,68.3138524,4.59,'11111222,11111222,11111222' 
TABS,ioos:station:wmo:42043:1,2009-11-04T14:30:00Z,28.9818,-94.9186,4.0,3.87001292,61.77910736,4.78,'11111222,11111222,11111222' 
TABS,ioos:station:wmo:42043:1,2009-11-04T15:00:00Z,28.9818,-94.9186,4.0,4.299593004,58.60167221,5.14,'11111222,11111222,11111222' 
TABS,ioos:station:wmo:42043:1,2009-11-04T15:30:00Z,28.9818,-94.9186,4.0,4.362396131,61.67220312,5.33,'11111222,11111222,11111222' 
TABS,ioos:station:wmo:42043:1,2009-11-04T16:00:00Z,28.9818,-94.9186,4.0,4.16,67.37976703,5.18,'11111222,11111222,11111222' 
TABS,ioos:station:wmo:42043:1,2009-11-04T16:30:00Z,28.9818,-94.9186,4.0,4.216740447,65.92677663,5.33,'11111222,11111222,11111222' 
TABS,ioos:station:wmo:42043:1,2009-11-04T17:00:00Z,28.9818,-94.9186,4.0,3.970201506,69.96720091,5.01,'11111222,11111222,11111222' 
TABS,ioos:station:wmo:42043:1,2009-11-04T17:30:00Z,28.9818,-94.9186,4.0,4.127044948,55.96304832,5.14,'11111222,11111222,11111222' 
TABS,ioos:station:wmo:42043:1,2009-11-04T18:00:00Z,28.9818,-94.9186,4.0,4.052776826,55.25085909,5.12,'11111222,11111222,11111222' 
TABS,ioos:station:wmo:42043:1,2009-11-04T18:30:00Z,28.9818,-94.9186,4.0,3.695294305,50.7102641,4.84,'11111222,11111222,11111222' 